West Baden Springs, IN (47469)

3:40 PM EDT on July 21, 2017 (GMT -0400)
fL | | Change Station
Active Advisory: Heat Advisory

Elev 758 ft 38.53 °N, 86.65 °W | Updated 5 minutes ago

Partly Cloudy
Partly Cloudy
93.1 °F
Feels Like 113 °F
N
4.0
Wind Variable Wind from West
Gusts 12.0 mph

Today
High -- | Low -- °F
--% Chance of Precip.
Yesterday
High -- | Low -- °F
Precip. -- in
Pressure 29.98 in
Visibility 9.0 miles
Clouds Few 3200 ft
Heat Index 113 °F
Dew Point 81 °F
Humidity 67%
Rainfall 0.00 in
Snow Depth Not available.
6:39 AM 9:06 PM
Waning Crescent, 4% visible
METAR KHNB 211856Z AUTO 18009KT 9SM FEW032 33/27 A2999 RMK AO2 SLP151 T03330267
Pressure 29.98 in
Visibility 9.0 miles
Clouds Few 3200 ft
Heat Index 113 °F
Dew Point 81 °F
Humidity 67%
Rainfall 0.00 in
Snow Depth Not available.
6:39 AM 9:06 PM
Waning Crescent, 4% visible
METAR KHNB 211856Z AUTO 18009KT 9SM FEW032 33/27 A2999 RMK AO2 SLP151 T03330267

Get Your Daily Forecast Email!

Thanks for signing up!

Be on the lookout for a verification email in your inbox.

You'll start receiving severe weather alerts in your inbox..

×

10-Day Weather Forecast

Almanac

Astronomy

Jul. 21, 2017 Rise Set
Actual Time
Civil Twilight
Nautical Twilight
Astronomical Twilight
Moon
Length of Visible Light
Length of Day
Tomorrow will be .
, % of the Moon is Illuminated

Today's Extremes

State Highs State Lows

Community

WunderPhotos

Category 6

Welcome to Category 6. This is the collective home for Weather Underground's featured writeups by Dr. Jeff Masters (right), Bob Henson (left), Chris Burt, and other regular contributors.

Nearby

Air Quality

  Air Quality AQ Index Pollutant
Not available.

Snow Depth

Station Depth Elevation

Earthquake Activity

City Distance Mag. Time & Date
Minimum magnitude displayed is 2.5.

Coastal Water Temperatures

Place Temperature

Stations

Nearby Weather Stations

Station Location Temp. Windchill Dew Point Humidity Wind Precip. Elev Updated Type
                   

Watches & Warnings

Heat Advisory
Issued: 2:03 PM CDT Jul. 21, 2017 – National Weather Service

... Heat advisory remains in effect until 8 PM EDT /7 PM CDT/
Saturday...

* heat index values... peak heat index values 105 to 110.

* Impacts... the combination of hot temperatures and high
humidity will lead to an increased risk of heat related stress
and illnesses. The very Young, the elderly, those without air
conditioning, and those participating in strenuous outdoor
activities will be the most susceptible.

Precautionary/preparedness actions...

Take extra precautions... if you work or spend time outside. When
possible... reschedule strenuous activities to early morning or
evening. Know the signs and symptoms of heat exhaustion and heat
stroke. Wear light weight and loose fitting clothing when
possible and drink plenty of water.



Zt